A`zam Kala, Afghanistan

7:24 AM AFT on February 22, 2017 (GMT +0430)
Kandahar

Weather History for OAKN - December, 2013

Change the Weather History Date:

Tuesday, December 3, 2013

  Actual Average Record
Temperature  
Mean Temperature 50 °F -  
Max Temperature 64 °F 59 °F - ()
Min Temperature 37 °F 34 °F - ()
Degree Days  
Heating Degree Days 14    
Moisture  
Dew Point 32 °F    
Average Humidity 54    
Maximum Humidity 87    
Minimum Humidity 22    
Precipitation  
Precipitation 0.00 in 0.03 in - ()
Sea Level Pressure  
Sea Level Pressure 30.14 in    
Wind  
Wind Speed 4 mph ()    
Max Wind Speed 9 mph    
Max Gust Speed -    
Visibility 5.9 miles    
Events      
T = Trace of Precipitation, MM = Missing Value Source: Averaged Metar Reports

Daily Weather History Graph

Daily Weather History Graph

Search for Another Location

Airport or City:

Trip Planner

Search our weather history database for the weather conditions in past years. The results will help you decide how hot, cold, wet, or windy it might be!

Date:

Astronomy

Dec. 03, 2013 Rise Set
Actual Time 6:49 AM AFT 5:03 PM AFT
Civil Twilight 6:23 AM AFT 5:29 PM AFT
Nautical Twilight 5:53 AM AFT 5:59 PM AFT
Astronomical Twilight 5:23 AM AFT 6:29 PM AFT
Moon 6:53 AM AFT (12/3) 5:38 PM AFT (12/3)
Length of Visible Light 11h 06m
Length of Day
10h 13m
New Moon, 0% of the Moon is Illuminated
Dec 3
New Moon
Dec 9
First Quarter
Dec 17
Full
Dec 25
Last Quarter
Jan 1
New

Hourly Weather History & Observations

Time (AFT) Temp. Windchill Dew Point Humidity Pressure Visibility Wind Dir Wind Speed Gust Speed Precip Events Conditions
12:20 AM 42.8 °F 39.3 °F 33.8 °F 70% 30.22 in 6.2 mi ENE 5.8 mph - N/A   Clear
1:20 AM 42.8 °F 40.1 °F 33.8 °F 70% 30.22 in 6.2 mi Variable 4.6 mph - N/A   Clear
2:20 AM 42.8 °F - 35.6 °F 76% 30.22 in 5.6 mi Variable 2.3 mph - N/A   Haze
3:20 AM 41.0 °F 39.0 °F 33.8 °F 76% 30.24 in 5.6 mi Variable 3.5 mph - N/A   Haze
4:20 AM 41.0 °F 36.4 °F 33.8 °F 76% 30.21 in 5.6 mi East 6.9 mph - N/A   Haze
5:20 AM 41.0 °F 38.0 °F 33.8 °F 76% 30.22 in 5.0 mi ENE 4.6 mph - N/A   Clear
6:20 AM 37.4 °F 34.9 °F 33.8 °F 87% 30.25 in 5.6 mi NNE 3.5 mph - N/A   Clear
7:20 AM 39.2 °F 37.0 °F 33.8 °F 81% 30.25 in 6.2 mi NE 3.5 mph - N/A   Clear
8:20 AM 42.8 °F 38.6 °F 33.8 °F 70% 30.25 in 6.2 mi ENE 6.9 mph - N/A   Clear
9:20 AM 50.0 °F - 35.6 °F 58% 30.21 in 5.6 mi NE 9.2 mph - N/A   Clear
10:20 AM 53.6 °F - 35.6 °F 51% 30.17 in 5.6 mi East 6.9 mph - N/A   Clear
11:20 AM 57.2 °F - 32.0 °F 38% 30.12 in 5.6 mi NE 6.9 mph - N/A   Haze
12:20 PM 59.0 °F - 32.0 °F 36% 30.06 in 6.2 mi Variable 5.8 mph - N/A   Partly Cloudy
1:20 PM 60.8 °F - 32.0 °F 34% 30.01 in 6.2 mi North 6.9 mph - N/A   Partly Cloudy
2:20 PM 62.6 °F - 28.4 °F 27% 29.98 in 6.2 mi North 9.2 mph - N/A   Scattered Clouds
3:20 PM 64.4 °F - 28.4 °F 26% 29.96 in 6.2 mi North 4.6 mph - N/A   Scattered Clouds
4:20 PM 64.4 °F - 24.8 °F 22% 29.96 in 6.2 mi Calm Calm - N/A   Scattered Clouds
5:20 PM 60.8 °F - 30.2 °F 31% 30.00 in 6.2 mi NW 3.5 mph - N/A   Partly Cloudy
6:20 PM 57.2 °F - 30.2 °F 36% 30.04 in 6.2 mi WNW 6.9 mph - N/A   Partly Cloudy
7:20 PM 53.6 °F - 32.0 °F 44% 30.08 in 6.2 mi SW 2.3 mph - N/A   Partly Cloudy
8:20 PM 51.8 °F - 33.8 °F 50% 30.12 in 5.6 mi ESE 3.5 mph - N/A   Smoke
9:20 PM 50.0 °F - 33.8 °F 54% 30.14 in 5.6 mi Calm Calm - N/A   Smoke
10:20 PM 48.2 °F - 32.0 °F 54% 30.17 in 5.6 mi ENE 2.3 mph - N/A   Smoke
11:20 PM 48.2 °F - 30.2 °F 50% 30.16 in 6.2 mi ENE 6.9 mph - N/A   Partly Cloudy